H-2A R/B, 43067

Orbit data source: Space-Track

H-2A R/B, 43067 is space debris in SSO originally from a launch on Sat, 23 Dec 2017 UTC launched from the Tanegashima Space Center (TNSTA). Debris objects in space refer to the collection of defunct objects orbiting the Earth. Examples of debris include non-operational satellites, rocket bodies, and fragments generated from explosions, collisions, or faulty payload assembly.

Loading next visibility...
H-2A R/B details
Identifier
43067, 2017-082C
Orbit
SSO
Last TLE update9 hours ago
Origin
Flag of JPMHI (JP / JPN)
ManufacturerMHI Tobishima
MissionSpacecraft
Bus & MotorH-2A STAGE 2, Unknown motor
Mass4,000 kg wet, 4,000 kg dry
Launch date (UTC)
2017-12-23 (7 years ago)
Launch vehicleUnknown
Launch site
Tanegashima Space Center (TNSTA)
Object type
Payload
Rocket body
Debris
Shape & HBRCyl, 9.2 m
Radar Cross Section35.186 m², Large (>1 m²)

Expand to show TLE details & history

TLE from 9 hours ago
0 H-2A R/B
1 43067U 17082C   24361.21407355  .00067249  00000-0  10704-2 0  9993
2 43067  98.3378 341.8099 0055414 111.7643 248.9516 15.51271596386976
Epoch: 2024-12-26T05:08Z
Definitive object data (Epoch: 2024-12-26T05:08:15.954Z)
Latitude-0.00007°
Longitude169.54675°
Altitude429.817 km
Speed7.646 km/s
True Right ascension22h 47m 14s
True Declination0° 00' 00"
Sunlit
Object was in daylight at TLE epoch
Visualization TLE readout
Latitude-64.37758°
Longitude-27.72067°
Altitude463.948 km
Speed7.618 km/s
Apparent Right ascension03h 46m 26s
Apparent Declination-68° 35' 09"
Sunlit
Object is in daylight
Visualization observer readout
Local Sidereal Time13:17:29
Azimuth202.725° SW
Elevation-55.116°
Doppler factor1
Orbital elements
Apogee altitude447.595 km
Perigee altitude372.364 km
Semi-major axis6,788.116 km
Eccentricity0.0055414
Inclination98.3378°
RAAN341.8099°
Arg. of periapsis111.7643°
True anomaly248.36045°
Mean anomaly248.9516°
Eccentric anomaly248.65588°
Mean motion3.88078 °/min
BSTAR0.0010704
Orbital period92.76 mins
Loading maneuver chart data...
Loading historical data...
Loading historical data...
Loading historical data...
Loading historical data...
Loading historical data...
Loading historical data...
Loading historical data...
Other satellites on launch #82 in the year 2017 (2017-12-23 UTC)

H-2A R/B Visibility forecast

Observer location: undefined°, undefined

Span
Click to sort rows by Start time (UTC) header in descending order
Start Az.
Max El. time (UTC)
Max El. Az.
Max El.
End time (UTC)
End Az.
4 mins2024-12-26 22:18:43.709Z120.69° SE2024-12-26 22:20:43.709Z76.491° E20.69°2024-12-26 22:22:43.709Z25.357° NE
|